Columbia@I.B.

Start Stop
DateFlow
CFS
Gauge
Feet
DateFlow
CFS
Gauge
Feet
07/19/2024 10:00 99.75
07/19/2024 09:0011000099.72
07/19/2024 08:0010900099.67
07/19/2024 07:0010800099.61
07/19/2024 06:00106000103.95
07/19/2024 05:0010500099.35
07/19/2024 04:0010600099.32
07/19/2024 03:00 99.34
07/19/2024 02:0010700099.37
07/19/2024 01:00 104.05
07/19/2024 00:0010900099.67
07/18/2024 23:0010900099.73
07/18/2024 22:00 99.82
07/18/2024 21:0011100099.98
07/18/2024 20:00113000100.39
07/18/2024 19:00121000101.37
07/18/2024 18:00 101.38
07/18/2024 17:00126000101.29
07/18/2024 16:00124000101.14
07/18/2024 15:00 100.81
07/18/2024 14:00113000104.71
07/18/2024 13:0011100099.78
07/18/2024 11:00 104.44
07/18/2024 10:0011000099.84
07/18/2024 09:0011100099.86
07/18/2024 08:0011100099.86
07/18/2024 07:0011000099.84
07/18/2024 06:0010700099.41
07/18/2024 05:0010400099.47
07/18/2024 04:0010600099.58
07/18/2024 03:00 99.73
07/18/2024 02:00111000100.04
07/18/2024 01:00113000104.71
07/18/2024 00:00112000100.07
07/17/2024 23:00114000104.81
07/17/2024 22:00114000100.23
07/17/2024 21:00115000100.43
07/17/2024 20:00117000100.96
07/17/2024 19:00125000101.35
07/17/2024 18:00 101.31
07/17/2024 17:00125000101.28
07/17/2024 16:00123000101.11
07/17/2024 15:00120000100.65
07/17/2024 14:00 100.68
07/17/2024 13:00119000100.67
07/17/2024 12:00118000100.68
07/17/2024 11:00119000100.67
07/17/2024 10:00 100.68
07/17/2024 09:00 105.46
07/17/2024 08:00119000100.62
07/17/2024 07:00116000105.12
07/17/2024 06:0011200099.79
07/17/2024 05:00110000 
07/17/2024 03:0011100099.94
07/17/2024 02:00112000100.09
07/17/2024 01:00 104.88
07/17/2024 00:00121000101.05
07/16/2024 23:00122000101.17
07/16/2024 22:00 105.95
07/16/2024 21:00133000102.15
07/16/2024 20:00137000102.52
07/16/2024 19:00139000102.52
07/16/2024 18:00137000102.45
07/16/2024 17:00 107.31
07/16/2024 16:00130000101.92
07/16/2024 15:00 101.87
07/16/2024 14:00130000101.8
07/16/2024 13:00 101.7
07/16/2024 12:00127000101.55
07/16/2024 11:00123000101.01
07/16/2024 10:00121000100.99
07/16/2024 09:00 100.99
07/16/2024 07:00 100.94
07/16/2024 06:00121000100.89
07/16/2024 05:00118000100.73
07/16/2024 04:00113000100.24
07/16/2024 03:00113000100.43
07/16/2024 02:00116000100.84
07/16/2024 01:00 101.59
07/16/2024 00:00127000101.62
07/15/2024 23:00 101.64
07/15/2024 22:00 101.63
07/15/2024 21:00127000101.65
07/15/2024 20:00 101.69
07/15/2024 19:00128000101.68
07/15/2024 18:00 101.71
07/15/2024 17:00128000106.4
07/15/2024 16:00129000101.72
07/15/2024 15:00129000101.7
07/15/2024 14:00128000101.7
07/15/2024 13:00 106.41
07/15/2024 12:00 101.63
07/15/2024 11:00 101.61
07/15/2024 10:00128000101.6
07/15/2024 09:00127000101.6
07/15/2024 08:00128000101.57
07/15/2024 07:00127000101.57
07/15/2024 06:00 101.59
07/15/2024 05:00127000101.56
07/15/2024 04:00126000101.54
07/15/2024 03:00126000101.55
07/15/2024 02:00128000101.56
07/15/2024 01:00127000106.27
07/15/2024 00:00126000101.58
07/14/2024 23:00127000106.28
07/14/2024 22:00128000101.61
07/14/2024 21:00 101.62
07/14/2024 20:00 101.61
07/14/2024 19:00128000101.64
07/14/2024 18:00129000101.62
07/14/2024 17:00 101.63
07/14/2024 16:00127000101.64
07/14/2024 15:00126000101.66
07/14/2024 14:00129000101.63
07/14/2024 13:00 106.43
07/14/2024 12:00126000101.64
07/14/2024 11:00127000101.62
07/14/2024 10:00128000101.61
07/14/2024 09:00 101.63
07/14/2024 08:00128000101.62
07/14/2024 07:00125000101.66
07/14/2024 06:00 101.64
07/14/2024 05:00128000101.69
07/14/2024 04:00128000101.74
07/14/2024 03:00130000101.78
07/14/2024 02:00129000101.79
07/14/2024 01:00130000101.81
07/14/2024 00:00 101.81
07/13/2024 23:00 101.88
07/13/2024 22:00130000102
07/13/2024 21:00 102.3
07/13/2024 20:00135000102.33
07/13/2024 19:00134000107.01
07/13/2024 18:00134000102.29
07/13/2024 17:00133000102.15
07/13/2024 16:00131000101.86
07/13/2024 15:00129000101.75
07/13/2024 14:00129000106.45
07/13/2024 13:00128000101.67
07/13/2024 12:00129000101.64
07/13/2024 11:00127000101.6
07/13/2024 10:00 101.57
07/13/2024 09:00 101.56
07/13/2024 08:00127000101.53
07/13/2024 07:00126000101.51
07/13/2024 06:00126000101.49
07/13/2024 05:00 101.48
07/13/2024 04:00127000101.48
07/13/2024 03:00126000101.46
07/13/2024 02:00 101.47
07/13/2024 01:00 106.18
07/13/2024 00:00126000101.44
07/12/2024 23:00127000106.25
07/12/2024 22:00 101.45
07/12/2024 21:00127000101.47
07/12/2024 20:00128000101.5
07/12/2024 19:00127000101.57
07/12/2024 18:00128000101.62
07/12/2024 17:00 101.65
07/12/2024 16:00 101.62
07/12/2024 15:00128000101.64
07/12/2024 14:00127000101.62
07/12/2024 13:00128000106.38
07/12/2024 12:00127000101.63
07/12/2024 11:00127000106.29
07/12/2024 10:00125000101.59
07/12/2024 09:00 106.33
07/12/2024 08:00127000101.56
07/12/2024 07:00 101.56
07/12/2024 06:00 101.5
07/12/2024 05:00127000101.47
07/12/2024 04:00125000101.47
07/12/2024 03:00 101.44
07/12/2024 02:00125000106.11
07/12/2024 01:00126000101.42
07/12/2024 00:00126000101.46
07/11/2024 23:00128000106.38
07/11/2024 22:00127000101.68
07/11/2024 21:00130000101.9
07/11/2024 20:00132000102.6
07/11/2024 19:00138000102.66
07/11/2024 18:00139000102.63
07/11/2024 17:00 102.58
07/11/2024 16:00136000102.41
07/11/2024 13:00131000101.95
07/11/2024 12:00130000101.81
07/11/2024 11:00127000106.26
07/11/2024 10:00125000101.34
07/11/2024 09:00 101.3
07/11/2024 08:00124000101.26
07/11/2024 07:00 101.2
07/11/2024 06:00124000101.15
07/11/2024 05:00121000101.14
07/11/2024 04:00124000101.15
07/11/2024 03:00 101.15
07/11/2024 02:00 101.19
07/11/2024 01:00124000101.28
07/11/2024 00:00127000101.4
07/10/2024 23:00125000101.83
07/10/2024 22:00130000101.85
07/10/2024 21:00131000101.83
07/10/2024 20:00130000101.81
07/10/2024 19:00 106.55
07/10/2024 18:00131000101.87
07/10/2024 17:00130000101.95
07/10/2024 16:00131000101.95
07/10/2024 15:00132000101.85
07/10/2024 13:00127000101.36
07/10/2024 12:00125000101.29
07/10/2024 11:00124000101.27
07/10/2024 10:00125000101.27
07/10/2024 09:00124000101.23
07/10/2024 08:00 101.23
07/10/2024 07:00 101.21
07/10/2024 06:00124000101.2
07/10/2024 05:00125000101.26
07/10/2024 04:00 101.29
07/10/2024 03:00 101.31
07/10/2024 02:00125000101.32
07/10/2024 01:00 106.19
07/10/2024 00:00127000101.5
07/09/2024 23:00128000101.79
07/09/2024 22:00 102.57
07/09/2024 21:00140000102.7
07/09/2024 20:00140000102.67
07/09/2024 19:00 102.61
07/09/2024 18:00138000102.45
07/09/2024 17:00134000101.91
07/09/2024 16:00132000101.87
07/09/2024 15:00131000101.77
07/09/2024 14:00128000101.41
07/09/2024 13:00126000101.37
07/09/2024 12:00 101.34
07/09/2024 10:00 101.35
07/09/2024 09:00126000106.21
07/09/2024 08:00125000101.31
07/09/2024 07:00125000101.33
07/09/2024 06:00126000101.34
07/09/2024 05:00126000101.31
07/09/2024 04:00125000101.3
07/09/2024 03:00 101.34
07/09/2024 02:00126000101.37
07/09/2024 01:00 106.24
07/09/2024 00:00128000101.6
07/08/2024 23:00129000101.81
07/08/2024 22:00132000102.23
07/08/2024 21:00144000103.32
07/08/2024 20:00146000103.32
07/08/2024 19:00147000103.29
07/08/2024 18:00 103.15
07/08/2024 17:00142000107.82
07/08/2024 16:00139000102.62
07/08/2024 15:00139000102.52
07/08/2024 14:00137000102.28
07/08/2024 13:00 101.61
07/08/2024 12:00129000101.56
07/08/2024 11:00 106.29
07/08/2024 10:00127000101.49
07/08/2024 09:00 101.46
07/08/2024 08:00128000101.48
07/08/2024 07:00 101.46
07/08/2024 06:00 101.45
07/08/2024 05:00128000101.43
07/08/2024 04:00 101.44
07/08/2024 03:00127000101.42
07/08/2024 02:00128000101.45
07/08/2024 01:00 106.41
07/08/2024 00:00128000101.44
07/07/2024 23:00 101.41
07/07/2024 22:00127000101.42
07/07/2024 21:00 106.27
07/07/2024 20:00 101.43
07/07/2024 19:00 101.47
07/07/2024 18:00127000101.54
07/07/2024 17:00129000101.62
07/07/2024 16:00131000101.88
07/07/2024 15:00135000102.52
07/07/2024 14:00 102.65
07/07/2024 13:00139000102.62
07/07/2024 12:00139000102.47
07/07/2024 11:00137000102.35
07/07/2024 10:00136000102.09
07/07/2024 09:00127000101.4
07/07/2024 08:00 101.41
07/07/2024 07:00 101.39
07/07/2024 06:00 101.38
07/07/2024 05:00127000101.38
07/07/2024 04:00128000101.4
07/07/2024 03:00 101.43
07/07/2024 02:00128000101.48
07/07/2024 01:00 101.58
07/07/2024 00:00131000101.91
07/06/2024 23:00134000102.02
07/06/2024 22:00 101.99
07/06/2024 21:00 102.02
07/06/2024 20:00134000102.04
07/06/2024 19:00135000102.06
07/06/2024 18:00134000102.16
07/06/2024 17:00137000102.48
07/06/2024 16:00140000102.53
07/06/2024 15:00138000102.48
07/06/2024 14:00 102.45
07/06/2024 13:00138000102.35
07/06/2024 12:00137000102.23
07/06/2024 11:00136000102.06
07/06/2024 10:00 101.57
07/06/2024 09:00128000101.41
07/06/2024 08:00125000101.14
07/06/2024 07:00 101.11
07/06/2024 06:00 101.11
07/06/2024 05:00 101.1
07/06/2024 04:00 101.11
07/06/2024 03:00125000101.12
07/06/2024 02:00126000101.13
07/06/2024 01:00 106.11
07/06/2024 00:00125000101.28
07/05/2024 23:00 106.35
07/05/2024 22:00129000102.03
07/05/2024 21:00139000102.65
07/05/2024 20:00145000103.05
07/05/2024 19:00146000103.1
07/05/2024 18:00146000103.14
07/05/2024 17:00142000103.13
07/05/2024 16:00145000103.07
07/05/2024 15:00144000103.06
07/05/2024 14:00144000102.99
07/05/2024 13:00145000102.95
07/05/2024 12:00144000102.84
07/05/2024 11:00143000102.65
07/05/2024 10:00137000102.15
07/05/2024 09:00135000101.96
07/05/2024 08:00 101.43
07/05/2024 07:00125000101.18
07/05/2024 06:00126000101.18
07/05/2024 05:00126000101.16
07/05/2024 04:00125000101.17
07/05/2024 03:00125000101.17
07/05/2024 02:00126000101.2
07/05/2024 01:00127000101.28
07/05/2024 00:00128000101.43
07/04/2024 23:00 101.86
07/04/2024 22:00135000102.39
07/04/2024 21:00141000102.8
07/04/2024 20:00 102.79
07/04/2024 19:00142000102.66
07/04/2024 18:00137000102.27
07/04/2024 17:00 102.24
07/04/2024 16:00137000102.2
07/04/2024 15:00136000102.08
07/04/2024 14:00135000101.85
07/04/2024 13:00126000101.25
07/04/2024 12:00126000101.25
07/04/2024 11:00127000101.24
07/04/2024 10:00127000101.22
07/04/2024 09:00125000101.23
07/04/2024 08:00126000101.23
07/04/2024 07:00126000101.2
07/04/2024 06:00 101.08
07/04/2024 05:00124000101.06
07/04/2024 04:00126000101.07
07/04/2024 03:00125000101.1
07/04/2024 01:00 106.11
07/04/2024 00:00129000101.59
07/03/2024 23:00133000102.16
07/03/2024 22:00142000103.02
07/03/2024 21:00144000102.94
07/03/2024 20:00142000102.66
07/03/2024 19:00141000102.6
07/03/2024 18:00141000102.44
07/03/2024 17:00137000102.09
07/03/2024 16:00134000102.08
07/03/2024 15:00136000102.07
07/03/2024 14:00136000102.1
07/03/2024 13:00135000102.14
07/03/2024 12:00135000102.24
07/03/2024 11:00136000102.25
07/03/2024 10:00 102.24
07/03/2024 09:00 102.14
07/03/2024 08:00136000101.99
07/03/2024 07:00130000101.54
07/03/2024 06:00128000101.39
07/03/2024 05:00125000101.1
07/03/2024 04:00126000101.11
07/03/2024 03:00 101.1
07/03/2024 02:00 101.12
07/03/2024 01:00126000101.23
07/03/2024 00:00125000101.47
07/02/2024 23:00132000102.04
07/02/2024 22:00 102.5
07/02/2024 21:00142000102.9
07/02/2024 20:00 102.83
07/02/2024 19:00142000102.68
07/02/2024 18:00137000102.25
07/02/2024 17:00136000102.27
07/02/2024 16:00137000107.32
07/02/2024 15:00136000102.27
07/02/2024 14:00 102.26
07/02/2024 13:00 102.22
07/02/2024 12:00136000102.14
07/02/2024 11:00133000101.81
07/02/2024 10:00131000101.87
07/02/2024 09:00 101.93
07/02/2024 08:00135000101.93
07/02/2024 07:00132000101.91
07/02/2024 06:00133000101.81
07/02/2024 05:00130000101.65
07/02/2024 04:00130000101.59
07/02/2024 03:00129000101.51
07/02/2024 02:00127000101.51
07/02/2024 01:00 106.51
07/02/2024 00:00131000101.86
07/01/2024 23:00135000102.08
07/01/2024 22:00138000107.38
07/01/2024 21:00145000102.9
07/01/2024 20:00144000102.85
07/01/2024 19:00144000107.99
07/01/2024 18:00141000102.58
07/01/2024 17:00136000102.2
07/01/2024 16:00137000102.11
07/01/2024 15:00135000101.93
07/01/2024 14:00131000106.69
07/01/2024 13:00127000101.23
07/01/2024 12:00127000101.22
07/01/2024 11:00126000101.19
07/01/2024 10:00127000101.19
07/01/2024 09:00125000101.17
07/01/2024 08:00126000101.12
07/01/2024 07:00124000101
07/01/2024 06:00125000 
07/01/2024 05:00123000101
07/01/2024 04:00124000101.01
07/01/2024 03:00124000101.03
07/01/2024 02:00126000101.06
07/01/2024 01:00125000101.17
07/01/2024 00:00125000106.1
06/30/2024 23:00126000101.26
06/30/2024 22:00128000101.39
06/30/2024 21:00129000101.72
06/30/2024 20:00134000102.02
06/30/2024 19:00 102.01
06/30/2024 18:00134000107.01
06/30/2024 17:00132000101.89
06/30/2024 16:00132000101.81
06/30/2024 15:00 101.67
06/30/2024 14:00130000101.48
06/30/2024 13:00128000101.34
06/30/2024 12:00125000101.04
06/30/2024 11:00122000100.62
06/30/2024 10:00119000100.42
06/30/2024 09:00 100.37
06/30/2024 08:00117000100.33
06/30/2024 07:00117000100.26
06/30/2024 06:00115000104.98
06/30/2024 05:00114000100.03
06/30/2024 04:00114000100.07
06/30/2024 03:00115000100.09
06/30/2024 02:00 100.14
06/30/2024 01:00117000100.24
06/30/2024 00:00117000100.38
06/29/2024 23:00 100.67
06/29/2024 22:00123000100.84
06/29/2024 21:00125000101.21
06/29/2024 20:00 101.19
06/29/2024 19:00125000101.1
06/29/2024 18:00124000100.93
06/29/2024 17:00122000100.78
06/29/2024 16:00120000100.6
06/29/2024 15:00118000100.34
06/29/2024 14:00 100.08
06/29/2024 13:0011400099.8
06/29/2024 12:00 99.56
06/29/2024 11:0010800099.44
06/29/2024 10:0010800099.35
06/29/2024 09:0010700099.27
06/29/2024 08:00 99.08
06/29/2024 07:0010100098.49
06/29/2024 06:009910098.47
06/29/2024 05:009880098.46
06/29/2024 04:009890098.45
06/29/2024 03:0010000098.44
06/29/2024 02:00 103.12
06/29/2024 01:009800098.36
06/29/2024 00:009880098.51
06/28/2024 23:0098800103.25
06/28/2024 22:0011000099.73
06/28/2024 21:0011000099.57
06/28/2024 20:00106000103.9
06/28/2024 19:0010500099.18
06/28/2024 18:0010500099.19
06/28/2024 17:0010600099.23
06/28/2024 16:00 99.3
06/28/2024 15:0010600099.32
06/28/2024 14:0010700099.37
06/28/2024 13:00108000104.15
06/28/2024 12:0010700099.38
06/28/2024 11:0010700099.36
06/28/2024 10:0010600099.25
06/28/2024 09:00 98.94
06/28/2024 08:0010000098.64
06/28/2024 07:00 98.63
06/28/2024 06:009920098.54
06/28/2024 05:009910098.56
06/28/2024 04:0010000098.61
06/28/2024 03:009980098.69
06/28/2024 02:00 98.76
06/28/2024 01:0010300098.9
06/28/2024 00:0010400098.91
06/27/2024 23:0010300098.99
06/27/2024 22:00102000103.54
06/27/2024 21:0010200098.79
06/27/2024 20:00101000103.41
06/27/2024 19:0010200098.8
06/27/2024 18:0010200098.8
06/27/2024 17:0010300098.81
06/27/2024 16:0010200098.82
06/27/2024 15:00 98.81
06/27/2024 14:009980098.62
06/27/2024 13:009880098.42
06/27/2024 12:009790098.28
06/27/2024 11:009640098.2
06/27/2024 10:0094700102.66
06/27/2024 09:009660098.24
06/27/2024 08:00 98.21
06/27/2024 07:009780098.21
06/27/2024 06:009640098.17
06/27/2024 05:009590098.15
06/27/2024 04:009550098.16
06/27/2024 03:009570098.16
06/27/2024 02:009450098.19
06/27/2024 01:0096000102.78
06/27/2024 00:009750098.34
06/26/2024 23:0097100102.99
06/26/2024 22:0010300098.94
06/26/2024 21:00104000103.67
06/26/2024 20:0010300099.07
06/26/2024 19:0010400099.27
06/26/2024 18:0010800099.8
06/26/2024 17:0011200099.63
06/26/2024 16:00 103.88
06/26/2024 15:0010400099.06
06/26/2024 14:0010400098.96
06/26/2024 13:00103000103.61
06/26/2024 12:0010100098.76
06/26/2024 11:0010000098.6
06/26/2024 10:009780098.32
06/26/2024 09:00 98.28
06/26/2024 08:009680098.29
06/26/2024 07:0096000102.78
06/26/2024 06:009650098.23
06/26/2024 05:009600098.27
06/26/2024 04:009620098.35
06/26/2024 03:009810098.57
06/26/2024 02:00 103.32
06/26/2024 01:0010300099.36
06/26/2024 00:00112000100.63
06/25/2024 23:00121000100.72
06/25/2024 22:00119000100.33
06/25/2024 21:00116000100.31
06/25/2024 20:00117000100.34
06/25/2024 19:00 100.32
06/25/2024 18:00117000100.17
06/25/2024 17:0011200099.63
06/25/2024 16:0010900099.5
06/25/2024 15:0010600099.32
06/25/2024 14:0010200098.8
06/25/2024 13:0010100098.73
06/25/2024 12:00 98.72
06/25/2024 11:0010100098.7
06/25/2024 10:00 103.32
06/25/2024 09:009980098.66
06/25/2024 08:009980098.61
06/25/2024 07:00 98.47
06/25/2024 06:009690098.11
06/25/2024 05:009510098.11
06/25/2024 04:009500098.07
06/25/2024 03:009400098.11
06/25/2024 02:00 98.22
06/25/2024 01:0095800102.75
06/25/2024 00:009610098.26
06/24/2024 23:009730098.36
06/24/2024 22:0097800103.05
06/24/2024 21:0010100099.09
06/24/2024 20:0010700099.51
06/24/2024 19:00 104.28
06/24/2024 18:00113000100.13
06/24/2024 17:00114000100.31
06/24/2024 16:00 100.68
06/24/2024 15:00120000100.69
06/24/2024 14:00 100.61
06/24/2024 13:00118000100.49
06/24/2024 12:00115000100.03
06/24/2024 11:0011200099.71
06/24/2024 10:0010600099.07
06/24/2024 09:0010000098.58
06/24/2024 08:009940098.44
06/24/2024 07:009610098.08
06/24/2024 06:00 98.01
06/24/2024 05:009360098
06/24/2024 04:009440098.06
06/24/2024 03:009550098.14
06/24/2024 02:009570098.38
06/24/2024 01:00 98.96
06/24/2024 00:0010300099.49
06/23/2024 23:00116000100.85
06/23/2024 22:00 100.91
06/23/2024 21:00121000100.9
06/23/2024 20:00122000100.92
06/23/2024 19:00 100.94
06/23/2024 18:00121000100.86
06/23/2024 17:00119000100.71
06/23/2024 16:00120000100.4
06/23/2024 15:0011100099.56
06/23/2024 14:0010800099.49
06/23/2024 13:00 99.42
06/23/2024 12:0010800099.39
06/23/2024 10:0010700099.31
06/23/2024 09:00 99.21
06/23/2024 08:0010500098.94
06/23/2024 07:009800098.27
06/23/2024 06:00 97.88
06/23/2024 05:009270097.84
06/23/2024 04:009230097.83
06/23/2024 03:00 97.83
06/23/2024 02:009290097.87
06/23/2024 01:009250097.95
06/23/2024 00:009380098.17
06/22/2024 23:009680098.81
06/22/2024 22:0010500099.49
06/22/2024 21:00112000100.11
06/22/2024 20:00 100.1
06/22/2024 19:00114000104.82
06/22/2024 18:0011200099.85
06/22/2024 17:0010800099.32
06/22/2024 16:00 99.35
06/22/2024 15:0010800099.49
06/22/2024 14:0011100099.83
06/22/2024 13:00 99.76
06/22/2024 12:0011100099.47
06/22/2024 11:00 98.86
06/22/2024 10:0010000098.63
06/22/2024 09:009710098.14
06/22/2024 08:009550098.11
06/22/2024 07:009470098.02
06/22/2024 06:009250097.78
06/22/2024 05:009200097.84
06/22/2024 04:009290097.96
06/22/2024 03:009510098.32
06/22/2024 02:009830098.73
06/22/2024 01:00 103.37
06/22/2024 00:009900098.36
06/21/2024 23:0010200099.15
06/21/2024 22:0010600099.38
06/21/2024 21:00109000100
06/21/2024 20:00 100.17
06/21/2024 19:00116000100.23
06/21/2024 18:00 100.26
06/21/2024 17:00115000100.27
06/21/2024 16:00116000 
06/21/2024 15:00115000100.27
06/21/2024 14:00116000100.25
06/21/2024 13:00115000100.26
06/21/2024 12:00 105.14
06/21/2024 11:00115000100.03
06/21/2024 10:0011300099.63
06/21/2024 09:00 98.67
06/21/2024 08:009350097.93
06/21/2024 07:009380097.93
06/21/2024 06:009290097.94
06/21/2024 05:00 97.93
06/21/2024 04:009320097.94
06/21/2024 03:009350097.97
06/21/2024 02:009420098.04
06/21/2024 01:009470098.23
06/21/2024 00:009700098.43
06/20/2024 23:009790098.92
06/20/2024 22:00106000100.03
06/20/2024 21:00 105.54
06/20/2024 20:00122000101.07
06/20/2024 19:00 101.12
06/20/2024 18:00124000101.17
06/20/2024 17:00124000101.18
06/20/2024 16:00125000101.16
06/20/2024 15:00124000101.07
06/20/2024 14:00121000100.79
06/20/2024 13:00 100.73
06/20/2024 12:00119000100.72
06/20/2024 11:00121000100.67
06/20/2024 10:00120000100.63
06/20/2024 09:00120000100.52
06/20/2024 08:00115000100.15
06/20/2024 07:0011000099.27
06/20/2024 06:0010000098.4
06/20/2024 05:009780098.42
06/20/2024 04:009770098.44
06/20/2024 03:009840098.46
06/20/2024 02:009810098.48
06/20/2024 01:009890098.58
06/20/2024 00:0010000098.8
06/19/2024 23:0010300099.36
06/19/2024 22:0010900099.91
06/19/2024 21:00113000100.05
06/19/2024 20:00115000100.27
06/19/2024 19:00122000100.87
06/19/2024 18:00121000100.81
06/19/2024 17:00120000100.82
06/19/2024 16:00122000100.83
06/19/2024 15:00121000100.79
06/19/2024 14:00120000100.73
06/19/2024 13:00120000100.65
06/19/2024 12:00118000100.37

Start Stop